User: anonymous   Login
Location: Buckeye Ditch
(40.9104°N, 122.9517°W)
Time: 11:59:25
(UTC+00:00)
Language:

Cosmos 1048 Rocket - Orbit

View from above orbital plane
View from above orbital plane
View from above satellite
View from above satellite

Ground track
Ground track

The orbit data is extracted from the following two-line orbital elements,

1 11112U 78105B   24164.70134548  .00000436  00000-0  15197-3 0  9995
2 11112  74.0287 148.5437 0032413  42.2630 318.1013 14.38019628386228
Epoch (UTC): 12 June 2024 16:49:56
Eccentricity: 0.0032413
inclination: 74.0287°
perigee height: 742 km
apogee height: 788 km
right ascension of ascending node: 148.5437°
argument of perigee: 42.2630°
revolutions per day: 14.38019628
mean anomaly at epoch: 318.1013°
orbit number at epoch: 38622

The dashed part of the orbit path shows where the satellite is in the earth's shadow,  

DLR